User: anonymous   Login
Location: Unspecified
(0.0000°N, 0.0000°E)
Time: 19:18:14
(UTC+00:00)
Language:

DNEPR OBJECT X - Orbit

View from above orbital plane
View from above orbital plane
View from above satellite
View from above satellite

Ground track
Ground track

The orbit data is extracted from the following two-line orbital elements,

1 39437U 13066X   18351.43246434  .00100346  00000-0  85279-3 0  9998
2 39437  97.7284 131.2879 0005129 294.7084  65.3642 15.69290476280888
Epoch (UTC): 17 December 2018 10:22:44
Eccentricity: 0.0005129
inclination: 97.7284°
perigee height: 357 km
apogee height: 364 km
right ascension of ascending node: 131.2879°
argument of perigee: 294.7084°
revolutions per day: 15.69290476
mean anomaly at epoch: 65.3642°
orbit number at epoch: 28088

The dashed part of the orbit path shows where the satellite is in the earth's shadow,  

DLR